Location: *
(51.8167°N, 12.5000°E)
Time: 22:30:28
(UTC+00:00)

In-Cosmos 22 - Pass Details

Date: 16 September 2019
Orbit: 785 x 877 km, 81.2° (Epoch: 15 October)

Event Time Altitude Azimuth Distance (km) Brightness Sun altitude
Rises 18:33:10 0° 350° (N) 3,295 7.7 -11.4°
Reaches altitude 10° 18:35:37 10° 355° (N) 2,368 6.9 -11.7°
Maximum altitude 18:40:48 50° 71° (ENE) 1,018 4.3 -12.5°
Enters shadow 18:45:27 13° 145° (SE) 2,180 5.9 -13.2°
